This demonstration page uses our WeatherBlox Daily Observations layout. Learn more.

Left ArrowRight Arrow

Hourly Observations for June 5, 2021

Temp ( °F °C ) Dew Point ( °F °C ) Humidity (%) Winds ( mph kmh ) Pressure ( in mb ) Visibility ( mi km ) Precip ( " mm )
12:15 am 00:15 Clear 71 21.4 56 13.6 61 61 S 8 13 29.79 1009 10 16 N/A
12:35 am 00:35 Clear 69 20.5 57 13.7 65 65 S 8 13 29.79 1009 10 16 N/A
12:55 am 00:55 Clear 68 20.2 57 14 68 68 S 9 15 29.79 1009 10 16 N/A
1:15 am 01:15 Clear 68 20 57 14 69 69 S 9 15 29.78 1008 10 16 N/A
1:35 am 01:35 Clear 69 20.3 58 14.2 68 68 S 10 17 29.78 1008 10 16 N/A
1:55 am 01:55 Clear 69 20.7 58 14.3 67 67 S 9 15 29.77 1008 10 16 N/A
2:15 am 02:15 Clear 68 20.1 58 14.5 70 70 S 10 17 29.78 1008 10 16 N/A
2:35 am 02:35 Clear 68 19.9 58 14.5 71 71 S 10 17 29.77 1008 10 16 N/A
2:55 am 02:55 Clear 67 19.7 58 14.5 72 72 S 12 19 29.77 1008 10 16 N/A
3:15 am 03:15 Clear 67 19.3 58 14.5 74 74 S 9 15 29.77 1008 10 16 N/A
3:35 am 03:35 Clear 67 19.3 58 14.5 74 74 S 9 15 29.77 1008 10 16 N/A
3:55 am 03:55 Clear 66 19 58 14.4 75 75 S 8 13 29.78 1008 10 16 N/A
4:15 am 04:15 Clear 66 18.9 58 14.4 75 75 SSW 7 11 29.78 1008 10 16 N/A
4:35 am 04:35 Clear 65 18.5 58 14.3 77 77 S 8 13 29.78 1008 10 16 N/A
4:55 am 04:55 Clear 65 18.3 58 14.3 78 78 S 9 15 29.78 1009 10 16 N/A
5:15 am 05:15 Clear 65 18.4 58 14.3 77 77 SSW 10 17 29.77 1008 10 16 N/A
5:35 am 05:35 Clear 65 18.1 58 14.3 79 79 S 9 15 29.77 1008 10 16 N/A
5:55 am 05:55 Clear 64 18 58 14.2 79 79 SSW 7 11 29.78 1009 10 16 N/A
6:15 am 06:15 Sunny 64 17.5 58 14.2 81 81 S 8 13 29.79 1009 10 16 N/A
6:35 am 06:35 Sunny 64 17.5 58 14.2 81 81 S 8 13 29.79 1009 10 16 N/A
6:55 am 06:55 Sunny 64 17.8 58 14.3 80 80 S 9 15 29.79 1009 10 16 N/A
7:15 am 07:15 Sunny 66 18.7 58 14.5 77 77 S 8 13 29.78 1008 10 16 N/A
7:35 am 07:35 Sunny 67 19.6 58 14.5 73 73 SSW 8 13 29.78 1008 10 16 N/A
7:55 am 07:55 Sunny 69 20.4 59 14.8 70 70 SSW 9 15 29.76 1008 10 16 N/A
8:15 am 08:15 Sunny 70 21.1 59 14.8 67 67 SSW 9 15 29.77 1008 10 16 N/A
8:35 am 08:35 Sunny 72 22 59 15 65 65 SW 10 17 29.76 1008 10 16 N/A
8:55 am 08:55 Sunny 73 22.7 59 15.1 62 62 SW 12 19 29.76 1008 10 16 N/A
9:15 am 09:15 Sunny 74 23.5 59 15.1 59 59 SW 13 20 29.75 1007 10 16 N/A
9:35 am 09:35 Sunny 76 24.3 60 15.6 58 58 SW 12 19 29.73 1007 10 16 N/A
9:55 am 09:55 Sunny 77 25.2 59 15 53 53 SW 13 20 29.73 1007 10 16 N/A
10:15 am 10:15 Sunny 79 26.1 59 15 50 50 SSW 12 19 29.71 1006 10 16 N/A
10:35 am 10:35 Sunny 80 26.7 58 14.6 47 47 SSW 13 20 29.70 1006 10 16 N/A
10:55 am 10:55 Sunny 82 27.5 59 14.8 46 46 SSW 13 20 29.70 1006 10 16 N/A
11:15 am 11:15 Sunny 83 28.2 58 14.5 43 43 SSW 15 24 29.69 1005 10 16 N/A
11:35 am 11:35 Sunny 84 28.7 58 14.5 42 42 S 13 20 29.69 1005 10 16 N/A
11:55 am 11:55 Sunny 84 29 57 13.9 40 40 S 16 26 29.68 1005 10 16 N/A
12:15 pm 12:15 Sunny 85 29.5 57 14 39 39 S 16 26 29.67 1005 10 16 N/A
12:35 pm 12:35 Sunny 85 29.6 57 13.9 38 38 S 16 26 29.67 1005 10 16 N/A
12:55 pm 12:55 Sunny 86 30 57 13.7 37 37 S 17 28 29.67 1005 10 16 N/A
1:15 pm 13:15 Sunny 87 30.4 56 13.2 35 35 S 17 28 29.67 1005 10 16 N/A
1:35 pm 13:35 Sunny 86 30.1 55 12.9 35 35 S 20 31 29.67 1005 10 16 N/A
1:55 pm 13:55 Sunny 87 30.6 55 12.8 34 34 S 22 35 29.66 1005 10 16 N/A
2:15 pm 14:15 Sunny 87 30.5 55 13 34 34 S 16 26 29.65 1004 10 16 N/A
2:35 pm 14:35 Sunny 87 30.5 55 13 34 34 SSE 15 24 29.65 1004 10 16 N/A
2:55 pm 14:55 Sunny 87 30.6 56 13.3 35 35 S 15 24 29.65 1004 10 16 N/A
3:15 pm 15:15 Sunny 87 30.6 57 13.8 36 36 SSW 18 30 29.64 1004 10 16 N/A
3:35 pm 15:35 Sunny 87 30.5 56 13.4 35 35 S 15 24 29.64 1004 10 16 N/A
3:55 pm 15:55 Sunny 87 30.6 56 13.1 34 34 S 20 31 29.63 1004 10 16 N/A
4:15 pm 16:15 Sunny 87 30.7 56 13.1 34 34 S 21 33 29.62 1003 10 16 N/A
4:35 pm 16:35 Sunny 87 30.7 55 12.9 34 34 S 16 26 29.62 1003 10 16 N/A
4:55 pm 16:55 Sunny 87 30.4 55 12.8 34 34 S 18 30 29.63 1003 10 16 N/A
5:15 pm 17:15 Sunny 87 30.4 55 13 34 34 S 17 28 29.62 1003 10 16 N/A
5:35 pm 17:35 Sunny 87 30.5 55 12.6 33 33 S 20 31 29.61 1003 10 16 N/A
5:55 pm 17:55 Sunny 86 30.2 55 12.8 34 34 S 16 26 29.61 1003 10 16 N/A
6:15 pm 18:15 Sunny 86 30.2 55 13 35 35 S 20 31 29.61 1003 10 16 N/A
6:35 pm 18:35 Sunny 86 30 56 13.2 36 36 S 17 28 29.61 1003 10 16 N/A
6:55 pm 18:55 Sunny 85 29.7 56 13.1 36 36 S 18 30 29.60 1002 10 16 N/A
7:15 pm 19:15 Sunny 85 29.5 56 13.3 37 37 S 18 30 29.60 1002 10 16 N/A
7:35 pm 19:35 Sunny 84 28.9 56 13.6 39 39 S 20 31 29.61 1003 10 16 N/A
7:55 pm 19:55 Sunny 83 28.1 58 14.5 43 43 S 17 28 29.62 1003 10 16 N/A
8:15 pm 20:15 Sunny 82 27.5 58 14.5 45 45 S 18 30 29.63 1003 10 16 N/A
8:35 pm 20:35 Sunny 80 26.9 58 14.5 47 47 S 15 24 29.63 1003 10 16 N/A
8:55 pm 20:55 Sunny 79 26.1 58 14.5 49 49 SSE 14 22 29.64 1004 10 16 N/A
9:15 pm 21:15 Clear 78 25.3 58 14.4 51 51 SSE 13 20 29.66 1004 10 16 N/A
9:35 pm 21:35 Clear 76 24.4 58 14.2 53 53 SSE 12 19 29.66 1004 10 16 N/A
9:55 pm 21:55 Clear 75 23.7 57 14.1 55 55 SSE 12 19 29.67 1005 10 16 N/A
10:15 pm 22:15 Clear 74 23.2 57 14 56 56 SSE 12 19 29.68 1005 10 16 N/A
10:35 pm 22:35 Clear 73 23 57 13.7 56 56 SSE 15 24 29.68 1005 10 16 N/A
10:55 pm 22:55 Clear 73 22.5 57 13.8 58 58 SSE 14 22 29.70 1006 10 16 N/A
11:15 pm 23:15 Clear 72 22.2 56 13.6 58 58 SSE 14 22 29.70 1006 10 16 N/A
11:35 pm 23:35 Clear 71 21.9 56 13.5 59 59 S 13 20 29.70 1006 10 16 N/A
11:55 pm 23:55 Clear 71 21.5 56 13.6 61 61 S 13 20 29.71 1006 10 16 N/A

Powered by AerisWeather